Location: Bosmont
(49.7318°N, 3.8587°E)
Time: 23:49:52
(UTC+00:00)

BEESAT - Visible Passes

Search period start: 01 December 2023 00:00
Search period end: 11 December 2023 00:00
Orbit: 696 x 702 km, 98.5° (Epoch: 30 November)

Date Brightness Start Highest point End Pass type
(mag) Time Alt. Az. Time Alt. Az. Time Alt. Az.
03 Dec ? 06:39:36 10° E 06:41:51 13° NE 06:44:06 10° NNE visible
05 Dec ? 06:27:09 10° ENE 06:27:52 10° NE 06:28:36 10° NE visible
08 Dec ? 06:52:00 10° E 06:54:56 17° NE 06:57:53 10° NNE visible
10 Dec ? 06:38:48 10° E 06:40:53 13° NE 06:43:00 10° NNE visible
